Location: Rounton
(54.4000°N, 1.3500°W)
Time: 02:29:46
(UTC+00:00)

Envisat - Pass Details

Date: 26 October 2021
Orbit: 764 x 766 km, 98.2° (Epoch: 28 November)

Event Time Altitude Azimuth Distance (km) Brightness Sun altitude
Rises 05:40:50 0° 19° (NNE) 3,247 6.6 -20.1°
Reaches altitude 10° 05:43:19 10° 28° (NNE) 2,316 5.9 -19.7°
Maximum altitude 05:48:04 38° 96° (E) 1,157 4.5 -19.1°
Drops below altitude 10° 05:52:47 10° 164° (SSE) 2,298 5.6 -18.4°
Sets 05:55:13 0° 173° (S) 3,220 6.3 -18.0°
